Home   Weather   Berkeley   Past weeks

Flag for USA Past Weather in Berkeley, California, USA — Yesterday and Last 2 Weeks

Now
66 °F

Sunny.


Feels Like: 66 °F
Forecast: 58 / 72 °F
Wind: 13 mph from Northwest

Location: Metro Oakland International Airport

Current Time: Sep 28, 2016 at 11:54:59 AM

Latest Report: Sep 28, 2016 at 10:53 AM


Visibility: 10 mi

Pressure: 29.91 "Hg

Humidity: 70%

Dew Point: 56 °F

Location of BerkeleyLocation

Past Weather in Berkeley — Graph

°F

Berkeley Temperature Yesterday

Maximum temperature yesterday: 84 °F (at 12:53 PM)
Minimum temperature yesterday: 59 °F (at 5:53 AM)
Average temperature yesterday: 69 °F

High & Low Weather Summary for the Past Weeks

 TemperatureHumidityPressure
High95 °F (Sep 26, 2:53 PM)97% (Sep 18, 6:53 AM)30.16 "Hg (Sep 18, 6:53 AM)
Low52 °F (Sep 23, 6:53 AM)19% (Sep 26, 2:53 PM)29.82 "Hg (Sep 27, 5:53 PM)
Average66 °F69%29.98 "Hg
* Reported Sep 13 9:53 AM — Sep 28 9:53 AM, Berkeley, Weather by CustomWeather, © 2016

Note: Actual official high and low records may vary slightly from our data, if they occured in-between our weather recording intervals... More about our weather records

Advertising

Berkeley Weather History for the Previous 24 Hours

Scroll right to see more
 ConditionsComfort  
Time TempWeatherWind HumidityBarometerVisibility
9:53 AM
Wed, Sep 28
64 °FPassing clouds.9 mph78%29.91 "Hg10 mi
8:53 AM61 °FPassing clouds.10 mph87%29.90 "Hg10 mi
7:53 AM57 °FPassing clouds.5 mph96%29.89 "Hg10 mi
6:53 AM55 °FPassing clouds.3 mph93%29.88 "Hg10 mi
5:53 AM56 °FPassing clouds.No wind90%29.86 "Hg10 mi
4:53 AM57 °FClear.No wind90%29.86 "Hg10 mi
3:53 AM57 °FClear.3 mph90%29.85 "Hg10 mi
2:53 AM58 °FClear.5 mph87%29.86 "Hg10 mi
1:53 AM59 °FClear.5 mph87%29.86 "Hg10 mi
12:53 AM59 °FClear.5 mph90%29.86 "Hg10 mi
11:53 PM
Tue, Sep 27
60 °FClear.7 mph83%29.87 "Hg10 mi
10:53 PM60 °FClear.9 mph86%29.86 "Hg10 mi
9:53 PM60 °FClear.7 mph86%29.86 "Hg10 mi
8:53 PM63 °FClear.8 mph78%29.85 "Hg10 mi
7:53 PM64 °FClear.10 mph78%29.83 "Hg10 mi
6:53 PM67 °FSunny.9 mph68%29.82 "Hg10 mi
5:53 PM72 °FSunny.12 mph61%29.82 "Hg10 mi
4:53 PM75 °FSunny.12 mph50%29.83 "Hg10 mi
3:53 PM80 °FSunny.12 mph38%29.83 "Hg10 mi
2:53 PM80 °FPassing clouds.15 mph44%29.84 "Hg10 mi
1:53 PM82 °FPassing clouds.12 mph41%29.86 "Hg10 mi
12:53 PM84 °FSunny.9 mph35%29.88 "Hg10 mi
11:53 AM81 °FSunny.7 mph37%29.90 "Hg10 mi
Weather by CustomWeather, © 2016

See weather overviewHow to use our weather pages